Weather History for Bakersfield, CA

Change the Weather History Date:

Wednesday, May 7, 2014

  Actual Average Record
Temperature  
Mean Temperature 68 °F 68 °F  
Max Temperature 79 °F 81 °F 101 °F (1987)
Min Temperature 56 °F 56 °F 42 °F (1965)
Degree Days  
Heating Degree Days 0    
Month to date heating degree days 6  
Since 1 July heating degree days 1508  
Cooling Degree Days 3    
Month to date cooling degree days 46  
Year to date cooling degree days 209  
Growing Degree Days 17 (Base 50)    
Moisture  
Dew Point 39 °F    
Average Humidity 40    
Maximum Humidity 61    
Minimum Humidity 19    
Precipitation  
Precipitation 0.00 in 0.01 in 0.14 in (1955)
Month to date precipitation 0.04 0.06  
Year to date precipitation 1.34 4.19  
Since 1 July precipitation 2.41 6.27  
Snow  
Snow 0.00 in - - ()
Month to date snowfall 0.0  
Since 1 July snowfall 0.0  
Snow Depth 0.00 in    
Sea Level Pressure  
Sea Level Pressure 29.89 in    
Wind  
Wind Speed 7 mph (NNW)    
Max Wind Speed 20 mph    
Max Gust Speed 24 mph    
Visibility 10 miles    
Events      
T = Trace of Precipitation, MM = Missing Value Source: NWS Daily Summary

Daily Weather History Graph

Daily Weather History Graph

Search for Another Location

Airport:

Trip Planner

Search our weather history database for the weather conditions in past years. The results will help you decide how hot, cold, wet, or windy it might be!

Date:

Astronomy

May. 07, 2014 Rise Set
Actual Time 5:58 AM PDT 7:47 PM PDT
Civil Twilight 5:30 AM PDT 8:15 PM PDT
Nautical Twilight 4:57 AM PDT 8:48 PM PDT
Astronomical Twilight 4:21 AM PDT 9:24 PM PDT
Moon 1:11 PM PDT (5/7) 1:45 AM PDT (5/7)
Length of Visible Light 14h 44m
Length of Day
13h 49m
First Quarter, 56% of the Moon is Illuminated
May 7
First Quarter
May 14
Full
May 21
Last Quarter
May 28
New
Jun 5
First Quarter

Hourly Weather History & Observations

Time (PDT) Temp. Dew Point Humidity Pressure Visibility Wind Dir Wind Speed Gust Speed Precip Events Conditions
12:54 AM 62.1 °F 42.1 °F 48% 29.87 in 10.0 mi Calm Calm - N/A   Overcast
1:54 AM 61.0 °F 44.1 °F 54% 29.86 in 10.0 mi SSE 8.1 mph - N/A   Overcast
2:54 AM 60.1 °F 43.0 °F 53% 29.86 in 10.0 mi SE 3.5 mph - N/A   Overcast
3:54 AM 57.9 °F 43.0 °F 58% 29.86 in 10.0 mi ESE 4.6 mph - N/A   Clear
4:54 AM 57.0 °F 43.0 °F 59% 29.86 in 10.0 mi SE 5.8 mph - N/A   Scattered Clouds
5:54 AM 55.9 °F 43.0 °F 62% 29.86 in 10.0 mi SE 4.6 mph - N/A   Clear
6:54 AM 55.9 °F 42.1 °F 60% 29.88 in 10.0 mi ESE 5.8 mph - N/A   Clear
7:54 AM 59.0 °F 41.0 °F 51% 29.91 in 10.0 mi Calm Calm - N/A   Clear
8:54 AM 62.1 °F 41.0 °F 46% 29.92 in 10.0 mi Calm Calm - N/A   Clear
9:54 AM 64.4 °F 39.2 °F 40% 29.93 in 10.0 mi Calm Calm - N/A   Clear
10:54 AM 66.9 °F 39.0 °F 36% 29.93 in 10.0 mi Variable 3.5 mph - N/A   Clear
11:54 AM 70.0 °F 37.9 °F 31% 29.92 in 10.0 mi Variable 6.9 mph - N/A   Clear
12:54 PM 73.9 °F 39.0 °F 28% 29.91 in 10.0 mi NNW 6.9 mph - N/A   Clear
1:54 PM 73.9 °F 37.9 °F 27% 29.90 in 10.0 mi Variable 5.8 mph 19.6 mph N/A   Clear
2:54 PM 75.9 °F 35.1 °F 23% 29.88 in 10.0 mi NW 12.7 mph 20.7 mph N/A   Clear
3:54 PM 78.1 °F 34.0 °F 20% 29.86 in 10.0 mi West 12.7 mph - N/A   Clear
4:54 PM 78.1 °F 33.1 °F 19% 29.85 in 10.0 mi NW 12.7 mph - N/A   Clear
5:54 PM 78.1 °F 34.0 °F 20% 29.84 in 10.0 mi NNW 15.0 mph - N/A   Clear
6:54 PM 75.9 °F 34.0 °F 22% 29.84 in 10.0 mi NW 12.7 mph - N/A   Clear
7:54 PM 70.0 °F 32.0 °F 25% 29.86 in 10.0 mi NNW 11.5 mph - N/A   Clear
8:54 PM 66.9 °F 32.0 °F 27% 29.89 in 10.0 mi NNW 11.5 mph - N/A   Clear
9:54 PM 63.0 °F 36.0 °F 37% 29.91 in 10.0 mi NNW 11.5 mph - N/A   Clear
10:54 PM 62.1 °F 39.9 °F 44% 29.92 in 10.0 mi NW 12.7 mph - N/A   Clear
11:54 PM 62.1 °F 39.9 °F 44% 29.95 in 10.0 mi Calm Calm - N/A   Clear